| time (UTC) | temp C | wind direction | speed KPH | gust KPH | rain 1hr cm | rain 24hr cm | rain mn cm | humidity % | barometer mb |
| 20260503193308 | 17 | 272 | 6.4 | 8.0 | 0.00 | 0.00 | 0.00 | 56 | 1013.5 |
| 20260503192807 | 17 | 243 | 3.2 | 6.4 | 0.00 | 0.00 | 0.00 | 58 | 1013.5 |
| 20260503192307 | 17 | 197 | 3.2 | 4.8 | 0.00 | 0.00 | 0.00 | 56 | 1013.6 |
| 20260503191807 | 17 | 262 | 1.6 | 4.8 | 0.00 | 0.00 | 0.00 | 58 | 1013.6 |
| 20260503191311 | 17 | 200 | 3.2 | 4.8 | 0.00 | 0.00 | 0.00 | 56 | 1013.6 |
| 20260503190811 | 17 | 74 | 1.6 | 4.8 | 0.00 | 0.00 | 0.00 | 57 | 1013.6 |
| 20260503190307 | 17 | 319 | 1.6 | 4.8 | 0.00 | 0.00 | 0.00 | 59 | 1013.7 |
| 20260503185336 | 17 | 33 | 1.6 | 3.2 | 0.00 | 0.00 | 0.00 | 60 | 1013.7 |
| 20260503184807 | 17 | 14 | 3.2 | 6.4 | 0.00 | 0.00 | 0.00 | 61 | 1013.7 |
| 20260503184308 | 17 | 340 | 3.2 | 6.4 | 0.00 | 0.00 | 0.00 | 58 | 1013.7 |
| 20260503183808 | 16 | 86 | 3.2 | 4.8 | 0.00 | 0.00 | 0.00 | 59 | 1013.7 |
| 20260503183307 | 16 | 129 | 3.2 | 6.4 | 0.00 | 0.00 | 0.00 | 59 | 1013.8 |
| 20260503182807 | 16 | 97 | 3.2 | 9.7 | 0.00 | 0.00 | 0.00 | 60 | 1013.8 |
| 20260503182307 | 16 | 201 | 3.2 | 4.8 | 0.00 | 0.00 | 0.00 | 61 | 1013.8 |
| 20260503181807 | 16 | 169 | 1.6 | 3.2 | 0.00 | 0.00 | 0.00 | 62 | 1013.8 |
| 20260503181307 | 16 | 279 | 1.6 | 3.2 | 0.00 | 0.00 | 0.00 | 63 | 1013.8 |
| 20260503180807 | 16 | 60 | 3.2 | 6.4 | 0.00 | 0.00 | 0.00 | 63 | 1013.8 |
| 20260503180307 | 16 | 339 | 3.2 | 4.8 | 0.00 | 0.00 | 0.00 | 65 | 1013.8 |
| 20260503175808 | 16 | 307 | 1.6 | 3.2 | 0.00 | 0.00 | 0.00 | 65 | 1013.8 |
| 20260503175307 | 15 | 321 | 3.2 | 4.8 | 0.00 | 0.00 | 0.00 | 66 | 1013.8 |
| 20260503174807 | 15 | 21 | 1.6 | 3.2 | 0.00 | 0.00 | 0.00 | 66 | 1013.7 |
| 20260503174307 | 15 | 330 | 3.2 | 3.2 | 0.00 | 0.00 | 0.00 | 67 | 1013.8 |
| 20260503173807 | 15 | 270 | 1.6 | 3.2 | 0.00 | 0.00 | 0.00 | 68 | 1013.8 |
| 20260503173307 | 15 | 262 | 3.2 | 4.8 | 0.00 | 0.00 | 0.00 | 69 | 1013.8 |
| 20260503172808 | 15 | 263 | 0.0 | 1.6 | 0.00 | 0.00 | 0.00 | 70 | 1013.8 |
| 20260503172307 | 14 | 342 | 0.0 | 1.6 | 0.00 | 0.00 | 0.00 | 72 | 1013.8 |
| 20260503171808 | 14 | 201 | 4.8 | 8.0 | 0.00 | 0.00 | 0.00 | 72 | 1013.8 |
| 20260503171307 | 15 | 244 | 3.2 | 4.8 | 0.00 | 0.00 | 0.00 | 73 | 1013.8 |
| 20260503170807 | 15 | 217 | 4.8 | 8.0 | 0.00 | 0.00 | 0.00 | 72 | 1013.8 |
| 20260503170307 | 15 | 219 | 4.8 | 6.4 | 0.00 | 0.00 | 0.00 | 72 | 1013.8 |
| 20260503150808 | 13 | 205 | 1.6 | 1.6 | 0.00 | 0.00 | 0.00 | 71 | 1013.3 |
| 20260503150307 | 13 | 194 | 1.6 | 3.2 | 0.00 | 0.00 | 0.00 | 71 | 1013.3 |
| 20260503140309 | 13 | 329 | 0.0 | 0.0 | 0.00 | 0.00 | 0.00 | 78 | 1012.7 |
| 20260503131308 | 12 | 164 | 0.0 | 3.2 | 0.00 | 0.00 | 0.00 | 80 | 1012.2 |
| 20260503130808 | 12 | 0 | 0.0 | 0.0 | 0.00 | 0.00 | 0.00 | 79 | 1012.1 |
| 20260503130307 | 12 | 302 | 1.6 | 3.2 | 0.00 | 0.00 | 0.00 | 80 | 1012.0 |
| 20260503110808 | 12 | 317 | 0.0 | 3.2 | 0.00 | 0.00 | 0.00 | 79 | 1012.1 |
| 20260503110307 | 12 | 240 | 0.0 | 3.2 | 0.00 | 0.00 | 0.00 | 79 | 1012.1 |
| 20260503090307 | 12 | 293 | 1.6 | 3.2 | 0.00 | 0.00 | 0.00 | 80 | 1012.3 |
| 20260503081307 | 13 | 300 | 4.8 | 8.0 | 0.00 | 0.00 | 0.00 | 78 | 1012.6 |
| 20260503080807 | 13 | 283 | 1.6 | 3.2 | 0.00 | 0.00 | 0.00 | 78 | 1012.7 |
| 20260503080307 | 13 | 292 | 3.2 | 6.4 | 0.00 | 0.00 | 0.00 | 78 | 1012.7 |
| 20260503072807 | 13 | 298 | 3.2 | 4.8 | 0.00 | 0.00 | 0.00 | 78 | 1012.9 |
| 20260503072307 | 13 | 302 | 4.8 | 8.0 | 0.00 | 0.00 | 0.00 | 78 | 1012.8 |
| 20260503071807 | 13 | 255 | 1.6 | 3.2 | 0.00 | 0.00 | 0.00 | 78 | 1012.9 |
| 20260503071307 | 13 | 293 | 1.6 | 4.8 | 0.00 | 0.00 | 0.00 | 77 | 1012.8 |
| 20260503070807 | 13 | 306 | 4.8 | 9.7 | 0.00 | 0.00 | 0.00 | 77 | 1012.8 |
| 20260503070307 | 13 | 305 | 3.2 | 6.4 | 0.00 | 0.00 | 0.00 | 77 | 1012.8 |
| 20260503060308 | 13 | 288 | 4.8 | 6.4 | 0.00 | 0.00 | 0.00 | 77 | 1013.0 |
| 20260503054807 | 13 | 293 | 3.2 | 4.8 | 0.00 | 0.00 | 0.00 | 76 | 1013.1 |
| 20260503054307 | 13 | 262 | 1.6 | 3.2 | 0.00 | 0.00 | 0.00 | 76 | 1013.1 |
| 20260503053807 | 13 | 318 | 3.2 | 6.4 | 0.00 | 0.00 | 0.00 | 76 | 1013.1 |
| 20260503053307 | 13 | 339 | 6.4 | 8.0 | 0.00 | 0.00 | 0.00 | 76 | 1013.1 |
| 20260503052807 | 13 | 262 | 3.2 | 6.4 | 0.00 | 0.00 | 0.00 | 77 | 1013.2 |
| 20260503052307 | 13 | 287 | 4.8 | 6.4 | 0.00 | 0.00 | 0.00 | 77 | 1013.2 |
| 20260503051807 | 13 | 345 | 4.8 | 8.0 | 0.00 | 0.00 | 0.00 | 77 | 1013.2 |
| 20260503051307 | 13 | 337 | 1.6 | 4.8 | 0.00 | 0.00 | 0.00 | 77 | 1013.2 |
| 20260503050807 | 13 | 277 | 3.2 | 6.4 | 0.00 | 0.00 | 0.00 | 77 | 1013.2 |
| 20260503050309 | 13 | 304 | 3.2 | 6.4 | 0.00 | 0.00 | 0.00 | 77 | 1013.2 |
| 20260503045807 | 13 | 308 | 1.6 | 4.8 | 0.00 | 0.00 | 0.00 | 76 | 1013.1 |
| 20260503045307 | 13 | 268 | 4.8 | 8.0 | 0.00 | 0.00 | 0.00 | 76 | 1013.1 |
| 20260503044807 | 13 | 288 | 3.2 | 4.8 | 0.00 | 0.00 | 0.00 | 76 | 1013.1 |
| 20260503044307 | 13 | 275 | 3.2 | 6.4 | 0.00 | 0.00 | 0.00 | 76 | 1013.0 |
| 20260503043807 | 13 | 301 | 4.8 | 8.0 | 0.00 | 0.00 | 0.00 | 76 | 1012.9 |
| 20260503043307 | 13 | 288 | 3.2 | 8.0 | 0.00 | 0.00 | 0.00 | 75 | 1012.9 |
| 20260503042807 | 13 | 288 | 3.2 | 4.8 | 0.00 | 0.00 | 0.00 | 76 | 1012.9 |
| 20260503042308 | 13 | 273 | 4.8 | 8.0 | 0.00 | 0.00 | 0.00 | 75 | 1012.9 |
| 20260503041807 | 13 | 295 | 4.8 | 9.7 | 0.00 | 0.00 | 0.00 | 75 | 1012.8 |
| 20260503041308 | 13 | 293 | 3.2 | 4.8 | 0.00 | 0.00 | 0.00 | 75 | 1012.8 |
| 20260503040807 | 13 | 312 | 6.4 | 12.9 | 0.00 | 0.00 | 0.00 | 75 | 1012.8 |
| 20260503040307 | 13 | 306 | 3.2 | 6.4 | 0.00 | 0.00 | 0.00 | 75 | 1012.7 |
| 20260503035807 | 13 | 310 | 6.4 | 9.7 | 0.00 | 0.00 | 0.00 | 75 | 1012.6 |
| 20260503035307 | 13 | 308 | 4.8 | 9.7 | 0.00 | 0.00 | 0.00 | 75 | 1012.6 |
| 20260503034807 | 13 | 298 | 6.4 | 11.3 | 0.00 | 0.00 | 0.00 | 75 | 1012.5 |
| 20260503034307 | 13 | 331 | 6.4 | 9.7 | 0.00 | 0.00 | 0.00 | 75 | 1012.5 |
| 20260503033808 | 13 | 322 | 4.8 | 9.7 | 0.00 | 0.00 | 0.00 | 74 | 1012.5 |
| 20260503033307 | 13 | 335 | 4.8 | 8.0 | 0.00 | 0.00 | 0.00 | 74 | 1012.3 |
| 20260503032807 | 13 | 352 | 4.8 | 8.0 | 0.00 | 0.00 | 0.00 | 74 | 1012.3 |
| 20260503032307 | 13 | 347 | 6.4 | 12.9 | 0.00 | 0.00 | 0.00 | 73 | 1012.3 |
| 20260503031807 | 14 | 0 | 9.7 | 16.1 | 0.00 | 0.00 | 0.00 | 73 | 1012.3 |
| 20260503031307 | 14 | 332 | 4.8 | 8.0 | 0.00 | 0.00 | 0.00 | 73 | 1012.2 |
| 20260503030807 | 14 | 337 | 4.8 | 8.0 | 0.00 | 0.00 | 0.00 | 72 | 1012.2 |
| 20260503030307 | 14 | 332 | 4.8 | 8.0 | 0.00 | 0.00 | 0.00 | 72 | 1012.1 |
| 20260503025807 | 14 | 353 | 4.8 | 9.7 | 0.00 | 0.00 | 0.00 | 71 | 1012.0 |
| 20260503025307 | 14 | 341 | 3.2 | 6.4 | 0.00 | 0.00 | 0.00 | 71 | 1012.0 |
| 20260503024807 | 14 | 345 | 3.2 | 8.0 | 0.00 | 0.00 | 0.00 | 71 | 1011.9 |
| 20260503024307 | 15 | 304 | 3.2 | 8.0 | 0.00 | 0.00 | 0.00 | 73 | 1011.8 |
| 20260503023807 | 15 | 303 | 3.2 | 4.8 | 0.00 | 0.00 | 0.00 | 74 | 1011.8 |
| 20260503023307 | 15 | 300 | 3.2 | 8.0 | 0.00 | 0.00 | 0.00 | 74 | 1011.8 |
| 20260503022807 | 15 | 301 | 6.4 | 9.7 | 0.00 | 0.00 | 0.00 | 74 | 1011.7 |
| 20260503022307 | 15 | 344 | 8.0 | 14.5 | 0.00 | 0.00 | 0.00 | 73 | 1011.6 |
| 20260503021807 | 15 | 298 | 4.8 | 9.7 | 0.00 | 0.00 | 0.00 | 73 | 1011.7 |
| 20260503021307 | 15 | 331 | 6.4 | 11.3 | 0.00 | 0.00 | 0.00 | 72 | 1011.7 |
| 20260503020814 | 15 | 308 | 3.2 | 6.4 | 0.00 | 0.00 | 0.00 | 72 | 1011.7 |
| 20260503020307 | 15 | 330 | 6.4 | 8.0 | 0.00 | 0.00 | 0.00 | 72 | 1011.7 |
| 20260503015807 | 16 | 327 | 3.2 | 6.4 | 0.00 | 0.00 | 0.00 | 71 | 1011.7 |
| 20260503015307 | 16 | 302 | 4.8 | 9.7 | 0.00 | 0.00 | 0.00 | 71 | 1011.7 |
| 20260503014807 | 16 | 304 | 3.2 | 6.4 | 0.00 | 0.00 | 0.00 | 71 | 1011.7 |
| 20260503014307 | 16 | 283 | 4.8 | 9.7 | 0.00 | 0.00 | 0.00 | 70 | 1011.7 |
| 20260503013808 | 16 | 325 | 6.4 | 9.7 | 0.00 | 0.00 | 0.00 | 70 | 1011.7 |
| 20260503013307 | 16 | 309 | 3.2 | 6.4 | 0.00 | 0.00 | 0.00 | 69 | 1011.7 |
| 20260503012808 | 16 | 319 | 4.8 | 6.4 | 0.00 | 0.00 | 0.00 | 69 | 1011.8 |
| 20260503012307 | 17 | 328 | 6.4 | 11.3 | 0.00 | 0.00 | 0.00 | 69 | 1011.7 |
| 20260503011807 | 17 | 337 | 3.2 | 6.4 | 0.00 | 0.00 | 0.00 | 68 | 1011.7 |
| 20260503011308 | 17 | 331 | 6.4 | 11.3 | 0.00 | 0.00 | 0.00 | 68 | 1011.7 |
| 20260503010807 | 17 | 318 | 6.4 | 9.7 | 0.00 | 0.00 | 0.00 | 67 | 1011.7 |
| 20260503010307 | 17 | 332 | 0.0 | 3.2 | 0.00 | 0.00 | 0.00 | 67 | 1011.6 |
| 20260503005808 | 17 | 341 | 6.4 | 11.3 | 0.00 | 0.00 | 0.00 | 67 | 1011.7 |
| 20260503005307 | 17 | 310 | 4.8 | 9.7 | 0.00 | 0.00 | 0.00 | 66 | 1011.7 |
| 20260503004808 | 17 | 322 | 1.6 | 3.2 | 0.00 | 0.00 | 0.00 | 67 | 1011.7 |
| 20260503004307 | 17 | 317 | 3.2 | 4.8 | 0.00 | 0.00 | 0.00 | 67 | 1011.7 |
| 20260503003807 | 18 | 339 | 6.4 | 9.7 | 0.00 | 0.00 | 0.00 | 66 | 1011.7 |
| 20260503003307 | 18 | 353 | 4.8 | 9.7 | 0.00 | 0.00 | 0.00 | 64 | 1011.7 |
| 20260503002807 | 17 | 307 | 6.4 | 12.9 | 0.00 | 0.00 | 0.00 | 65 | 1011.7 |
| 20260503002307 | 17 | 359 | 6.4 | 11.3 | 0.00 | 0.00 | 0.00 | 66 | 1011.8 |
| 20260503001808 | 18 | 339 | 6.4 | 11.3 | 0.00 | 0.00 | 0.00 | 64 | 1011.8 |
| 20260503001307 | 18 | 321 | 8.0 | 12.9 | 0.00 | 0.00 | 0.00 | 65 | 1011.8 |
| 20260503000807 | 18 | 15 | 11.3 | 16.1 | 0.00 | 0.00 | 0.00 | 64 | 1011.8 |
| 20260503000307 | 18 | 356 | 3.2 | 9.7 | 0.00 | 0.00 | 0.00 | 64 | 1011.8 |
| 20260502235807 | 18 | 357 | 6.4 | 11.3 | 0.00 | 0.00 | 0.00 | 64 | 1011.8 |
| 20260502235307 | 18 | 340 | 6.4 | 8.0 | 0.00 | 0.00 | 0.00 | 64 | 1011.8 |
| 20260502234807 | 18 | 333 | 8.0 | 11.3 | 0.00 | 0.00 | 0.00 | 62 | 1011.8 |
| 20260502234307 | 18 | 357 | 8.0 | 11.3 | 0.00 | 0.00 | 0.00 | 63 | 1011.8 |
| 20260502233807 | 18 | 324 | 6.4 | 11.3 | 0.00 | 0.00 | 0.00 | 63 | 1011.9 |
| 20260502233307 | 18 | 348 | 6.4 | 11.3 | 0.00 | 0.00 | 0.00 | 63 | 1012.0 |
| 20260502232807 | 18 | 359 | 8.0 | 12.9 | 0.00 | 0.00 | 0.00 | 64 | 1012.0 |
| 20260502232307 | 17 | 21 | 8.0 | 9.7 | 0.00 | 0.00 | 0.00 | 66 | 1012.1 |
| 20260502231807 | 17 | 1 | 11.3 | 19.3 | 0.00 | 0.00 | 0.00 | 66 | 1012.1 |
| 20260502231308 | 18 | 349 | 9.7 | 17.7 | 0.00 | 0.00 | 0.00 | 67 | 1012.2 |
| 20260502230807 | 18 | 11 | 11.3 | 20.9 | 0.00 | 0.00 | 0.00 | 65 | 1012.1 |
| 20260502230307 | 18 | 341 | 9.7 | 17.7 | 0.00 | 0.00 | 0.00 | 65 | 1012.3 |
| 20260502225807 | 18 | 9 | 11.3 | 17.7 | 0.00 | 0.00 | 0.00 | 64 | 1012.4 |
| 20260502225307 | 18 | 325 | 9.7 | 14.5 | 0.00 | 0.00 | 0.00 | 64 | 1012.4 |
| 20260502224807 | 18 | 346 | 6.4 | 11.3 | 0.00 | 0.00 | 0.00 | 65 | 1012.5 |
| 20260502224307 | 18 | 8 | 11.3 | 16.1 | 0.00 | 0.00 | 0.00 | 65 | 1012.6 |
| 20260502223807 | 18 | 349 | 9.7 | 16.1 | 0.00 | 0.00 | 0.00 | 65 | 1012.6 |
| 20260502223308 | 18 | 339 | 9.7 | 14.5 | 0.00 | 0.00 | 0.00 | 64 | 1012.7 |
| 20260502222807 | 18 | 353 | 6.4 | 9.7 | 0.00 | 0.00 | 0.00 | 65 | 1012.7 |
| 20260502222307 | 18 | 17 | 8.0 | 14.5 | 0.00 | 0.00 | 0.00 | 65 | 1012.8 |
| 20260502221807 | 18 | 0 | 11.3 | 16.1 | 0.00 | 0.00 | 0.00 | 64 | 1012.9 |
| 20260502221309 | 18 | 331 | 8.0 | 12.9 | 0.00 | 0.00 | 0.00 | 64 | 1013.0 |
| 20260502220807 | 18 | 28 | 9.7 | 14.5 | 0.00 | 0.00 | 0.00 | 64 | 1013.0 |
| 20260502220307 | 18 | 10 | 9.7 | 20.9 | 0.00 | 0.00 | 0.00 | 65 | 1013.1 |
| 20260502215808 | 18 | 13 | 8.0 | 14.5 | 0.00 | 0.00 | 0.00 | 65 | 1013.1 |
| 20260502215307 | 18 | 344 | 9.7 | 14.5 | 0.00 | 0.00 | 0.00 | 65 | 1013.2 |
| 20260502214807 | 18 | 338 | 9.7 | 12.9 | 0.00 | 0.00 | 0.00 | 67 | 1013.3 |
| 20260502214307 | 18 | 348 | 8.0 | 14.5 | 0.00 | 0.00 | 0.00 | 65 | 1013.3 |
| 20260502213807 | 18 | 38 | 6.4 | 11.3 | 0.00 | 0.00 | 0.00 | 67 | 1013.3 |
| 20260502213307 | 18 | 351 | 6.4 | 8.0 | 0.00 | 0.00 | 0.00 | 67 | 1013.4 |
| 20260502212807 | 18 | 18 | 8.0 | 14.5 | 0.00 | 0.00 | 0.00 | 66 | 1013.3 |
| 20260502212308 | 18 | 17 | 6.4 | 12.9 | 0.00 | 0.00 | 0.00 | 68 | 1013.4 |
| 20260502211808 | 18 | 42 | 12.9 | 19.3 | 0.00 | 0.00 | 0.00 | 68 | 1013.5 |
| 20260502211307 | 18 | 14 | 8.0 | 11.3 | 0.00 | 0.00 | 0.00 | 67 | 1013.5 |
| 20260502210809 | 18 | 358 | 11.3 | 16.1 | 0.00 | 0.00 | 0.00 | 65 | 1013.5 |
| 20260502210307 | 18 | 32 | 9.7 | 14.5 | 0.00 | 0.00 | 0.00 | 65 | 1013.5 |
| 20260502205807 | 18 | 338 | 3.2 | 4.8 | 0.00 | 0.00 | 0.00 | 67 | 1013.6 |
| 20260502205309 | 18 | 7 | 3.2 | 6.4 | 0.00 | 0.00 | 0.00 | 68 | 1013.7 |
| 20260502204807 | 18 | 44 | 8.0 | 12.9 | 0.00 | 0.00 | 0.00 | 66 | 1013.8 |
| 20260502204307 | 18 | 330 | 6.4 | 9.7 | 0.00 | 0.00 | 0.00 | 66 | 1013.8 |
| 20260502203807 | 18 | 6 | 3.2 | 8.0 | 0.00 | 0.00 | 0.00 | 67 | 1013.8 |
| 20260502203308 | 18 | 34 | 6.4 | 14.5 | 0.00 | 0.00 | 0.00 | 67 | 1013.8 |
| 20260502202807 | 18 | 308 | 1.6 | 3.2 | 0.00 | 0.00 | 0.00 | 67 | 1013.9 |
| 20260502202307 | 17 | 1 | 6.4 | 8.0 | 0.00 | 0.00 | 0.00 | 67 | 1013.9 |
| 20260502201807 | 17 | 38 | 6.4 | 12.9 | 0.00 | 0.00 | 0.00 | 67 | 1014.1 |
| 20260502201307 | 17 | 65 | 6.4 | 8.0 | 0.00 | 0.00 | 0.00 | 68 | 1014.1 |
| 20260502200807 | 17 | 354 | 6.4 | 9.7 | 0.00 | 0.00 | 0.00 | 67 | 1014.1 |
| 20260502200307 | 17 | 19 | 6.4 | 9.7 | 0.00 | 0.00 | 0.00 | 68 | 1014.2 |
| 20260502195807 | 17 | 30 | 6.4 | 12.9 | 0.00 | 0.00 | 0.00 | 67 | 1014.2 |
| 20260502195307 | 17 | 319 | 3.2 | 4.8 | 0.00 | 0.00 | 0.00 | 69 | 1014.3 |
| 20260502194807 | 17 | 336 | 4.8 | 6.4 | 0.00 | 0.00 | 0.00 | 68 | 1014.3 |
| 20260502194308 | 17 | 311 | 0.0 | 1.6 | 0.00 | 0.00 | 0.00 | 69 | 1014.3 |
| 20260502193808 | 17 | 31 | 6.4 | 8.0 | 0.00 | 0.00 | 0.00 | 68 | 1014.4 |